SCP
0 0 0 0 0 0 0 0 0 0 0 0 0 0 0 0 0 0 0 0 0 0 0 0 0 0 0 0 0 0 0 0 0 0 0 0 0 0 0 0 0 0 0
0 0 0 0 0 0 0 0 0 0 0 0 0 0 0 0 0 0 0 0 0 0 0 0 0 0 0 0 0 0 0 0 0 0 0 0 0 0 0 0 0 0 0
0 0 0 0 0 0 0 0 0 0 0 0 0 0 0 0 0 0 0 0 0 0 0 0 0 0 0 0 0 0 0 0 0 0 0 0 0 0 0 0 0 0 0
0 0 0 0 0 0 0 0 0 0 0 0 0 0 0 0 0 0 0 0 0 0 0 0 0 0 0 0 0 0 0 0 0 0 0 0 0 0 0 0 0 0 0
0 0 0 0 0 0 0 0 0 0 0 0 0 0 0 0 0 0 0 0 0 0 0 0 0 0 0 0 0 0 0 0 0 0 0 0 0 0 0 0 0 0 0
0 0 0 0 0 0 0 0 0 0 0 0 0 0 0 0 0 0 0 0 0 0 0 0 0 0 0 0 0 0 0 0 0 0 0 0 0 0 0 0 0 0 0
0 0 0 0 0 0 0 0 0 0 0 0 0 0 0 0 0 0 0 0 0 0 0 0 0 0 0 0 0 0 0 0 0 0 0 0 0 0 0 0 0 0 0
0 0 0 0 0 0 0 0 0 0 0 0 0 0 0 0 0 0 0 0 0 0 0 0 0 0 0 0 0 0 0 0 0 0 0 0 0 0 0 0 0 0 0
0 0 0 0 0 0 0 0 0 0 0 0 0 0 0 0 0 0 0 0 0 0 0 0 0 0 0 0 0 0 0 0 0 0 0 0 0 0 0 0 0 0 0
0 0 0 0 0 0 0 0 0 0 0 0 0 0 0 0 0 0 0 0 0 0 0 0 0 0 0 0 0 0 0 0 0 0 0 0 0 0 0 0 0 0 0
0 0 0 0 0 0 0 0 0 0 0 0 0 0 0 0 0 0 0 0 0 0 0 0 0 0 0 0 0 0 0 0 0 0 0 0 0 0 0 0 0 0 0
0 0 0 0 0 0 0 0 0 0 0 0 0 0 0 0 0 0 0 0 0 0 0 0 0 0 0 0 0 0 0 0 0 0 0 0 0 0 0 0 0 0 0
0 0 0 0 0 0 0 0 0 0 0 0 0 0 0 0 0 0 0 0 0 0 0 0 0 0 0 0 0 0 0 0 0 0 0 0 0 0 0 0 0 0 0
0 0 0 0 0 0 0 0 0 0 0 0 0 0 0 0 0 0 0 0 0 0 0 0 0 0 0 0 0 -0 0 0 0 0 0 0 0 0 0 0 0 0 0
0 0 0 0 0 0 0 0 0 0 0 0 0 0 0 0 0 0 0 0 0 0 0 0 0 0 0 0 0 0 0 0 0 0 0 0 0 0 0 0 0 0 0
0 0 0 0 0 0 0 0 0 0 0 0 0 0 0 0 0 0 0 0 0 0 0 0 0 0 0 0 0 0 0 0 0 0 0 0 0 0 0 0 0 0 0
0 0 0 0 0 0 0 0 1 1 1 0 0 0 0 0 0 0 0 0 0 0 0 0 0 0 0 0 0 0 0 0 0 0 0 0 0 0 0 0 0 0 0
0 0 0 0 0 0 0 1 1 1 1 1 0 0 0 0 0 0 0 0 0 0 0 0 0 0 0 0 0 0 0 0 0 0 0 0 0 0 0 0 0 0 0
0 0 0 0 0 0 0 0 1 1 1 1 0 0 0 0 0 0 0 0 0 0 0 0 0 0 0 0 0 0 0 0 0 0 0 0 0 0 0 0 0 0 0
0 0 0 0 0 0 0 0 0 0 1 1 1 0 0 0 0 0 0 0 0 0 0 0 0 0 0 0 0 0 0 0 0 0 0 0 0 0 0 0 0 0 0
0 0 0 0 0 0 0 0 0 0 0 1 1 1 0 0 0 0 0 0 0 0 0 0 0 0 0 0 0 0 0 0 0 0 0 0 0 0 0 0 0 0 0
0 0 0 0 0 0 0 0 0 0 0 1 1 1 0 0 0 0 0 0 0 0 0 0 0 0 0 0 0 0 0 0 0 0 0 0 0 0 0 0 0 0 0
0 0 0 0 0 0 0 0 0 0 0 0 1 1 0 0 0 0 0 0 0 0 0 0 0 0 0 0 0 0 0 0 0 0 0 0 0 0 0 0 0 0 0
0 0 0 0 0 0 0 0 0 0 0 0 0 0 0 0 0 0 0 0 0 0 0 0 0 0 0 0 0 0 0 0 0 0 0 0 0 0 0 0 0 0 0
0 0 0 0 0 0 0 0 0 0 0 0 0 0 0 0 0 0 0 0 0 0 0 0 0 0 0 0 0 0 0 0 0 0 0 0 0 0 0 0 0 0 0
0 0 0 0 0 0 0 0 0 0 0 0 0 0 0 0 0 0 0 0 0 0 0 0 0 0 0 0 0 0 0 0 0 0 0 0 0 0 0 0 0 0 0
Wind_Speed
4 5 11 11 10 10 10 10 10 11 11 11 12 12 12 12 11 11 10 9 8 8 7 7 8 8 8 8 8 7 7 8 8 8 8 8 8 8 8 8 7 5 7
8 7 12 11 11 11 10 10 10 10 10 10 11 11 11 11 11 10 10 9 9 8 7 7 7 7 8 8 7 7 7 7 8 8 8 7 8 8 8 8 7 4 7
10 7 10 12 12 11 10 10 10 9 9 10 10 10 10 10 10 9 9 9 8 8 7 7 7 7 7 7 7 7 7 7 7 8 7 4 4 8 8 8 7 7 7
10 7 8 13 12 11 11 10 9 9 9 9 9 9 9 9 9 8 8 8 8 7 7 7 6 7 6 6 6 6 6 6 7 7 4 3 3 7 8 8 7 7 7
8 7 8 13 12 11 10 10 9 9 9 9 9 8 8 8 8 8 7 7 7 7 6 6 6 6 6 6 5 6 6 6 7 6 4 3 3 6 7 7 7 8 8
8 6 8 13 12 11 11 10 10 9 9 9 8 8 7 7 7 7 7 7 6 6 6 5 5 5 5 5 5 5 6 7 6 4 3 2 2 5 7 7 7 8 8
7 6 7 13 13 12 11 10 10 10 9 9 8 7 7 7 6 6 6 6 5 5 5 5 4 4 4 4 4 5 5 6 4 3 2 2 1 4 6 6 7 7 7
8 7 7 13 13 12 11 11 11 10 10 9 8 7 7 6 6 5 5 5 4 4 4 4 4 4 4 4 4 4 4 4 4 3 2 1 1 3 5 5 6 6 6
6 6 5 6 9 12 12 12 11 11 10 9 9 8 7 6 6 5 5 4 4 3 3 3 3 3 4 4 3 4 4 4 3 1 1 0 0 2 4 4 5 6 6
4 4 5 5 5 5 7 12 12 12 11 10 9 8 8 7 6 5 4 4 3 3 2 2 2 2 3 4 4 4 4 4 2 1 1 1 1 2 4 4 5 5 5
5 3 4 4 5 5 5 8 10 11 11 10 8 10 7 3 2 2 4 4 4 3 2 1 1 1 3 4 4 4 4 1 1 0 0 2 1 2 3 4 5 5 5
7 6 4 5 5 4 5 4 3 4 5 5 4 4 3 3 2 3 3 6 5 4 3 2 1 2 3 2 3 3 1 1 1 0 1 2 2 2 2 3 4 4 4
5 6 7 6 5 5 4 3 2 2 3 4 5 4 3 3 2 2 1 2 2 3 1 2 2 1 1 0 0 0 0 0 1 1 1 3 2 2 2 3 3 3 4
3 5 6 7 6 6 5 4 3 3 3 4 5 5 4 2 3 2 2 2 1 1 1 1 1 1 1 1 2 1 1 1 1 1 2 3 2 2 2 3 3 3 3
3 4 5 6 7 6 6 5 5 5 5 5 4 5 5 4 4 3 2 2 3 2 2 2 2 2 2 2 2 3 3 3 2 2 1 2 2 2 2 3 3 2 2
7 6 4 5 6 7 7 6 6 5 5 4 5 6 7 5 4 4 3 3 3 3 3 2 2 2 2 1 2 3 4 3 3 2 1 2 2 2 2 3 3 3 3
9 8 6 4 4 6 7 7 6 5 5 5 5 6 7 6 6 5 4 4 4 3 3 2 2 1 2 1 2 2 3 3 3 2 2 1 1 2 3 3 3 3 3
9 9 8 7 4 4 6 6 5 5 5 6 5 6 8 8 7 5 4 5 4 3 3 3 2 2 1 1 1 1 1 2 3 2 2 2 1 1 2 3 3 3 3
9 9 9 8 7 5 4 4 5 4 5 5 5 5 6 8 8 6 5 4 4 3 3 3 2 2 2 2 2 1 1 2 2 3 3 3 2 2 1 2 3 2 3
9 8 8 8 7 6 4 3 3 4 5 4 5 6 7 6 8 7 5 5 4 3 3 3 3 2 2 2 2 1 0 1 2 2 3 3 3 3 3 2 1 1 3
10 10 9 8 8 5 3 2 2 3 4 4 5 6 6 6 7 7 5 4 4 4 5 5 3 3 2 2 2 1 1 1 2 2 2 3 4 4 3 3 2 1 1
9 10 9 8 8 6 4 3 3 3 3 4 4 5 6 6 7 7 6 5 5 4 4 4 3 3 2 3 3 2 0 2 2 2 2 3 4 3 4 5 4 3 2
10 10 9 9 8 7 6 4 3 2 2 2 4 4 5 6 6 5 6 5 5 4 4 4 4 5 3 2 2 4 3 4 2 2 1 2 2 3 3 3 4 5 4
10 9 9 8 8 7 6 4 4 3 3 4 3 3 4 5 6 6 6 6 6 5 5 5 4 3 4 3 1 1 2 3 3 1 2 1 1 3 3 4 4 5 5
10 10 8 8 8 7 6 5 4 3 3 2 1 3 4 4 5 6 6 6 5 5 6 5 5 4 3 3 3 2 2 1 1 2 2 2 1 2 3 4 3 4 5
9 9 8 8 8 7 6 5 4 4 3 1 1 2 2 2 2 4 5 5 5 4 5 5 5 5 4 4 3 3 3 3 3 3 3 2 2 2 2 2 3 4 4
Wind_Direction
174 172 168 156 151 144 136 130 127 125 122 121 121 120 121 123 124 125 127 127 126 124 123 120 121 122 120 119 117 116 112 107 103 98 92 88 88 93 100 104 104 101 103
151 160 163 157 153 147 142 138 134 131 129 125 122 121 122 123 122 122 124 124 123 120 116 115 118 121 121 120 117 117 114 108 103 95 86 78 84 92 98 102 108 111 107
144 154 158 157 154 152 149 145 141 137 133 129 126 124 124 124 124 124 124 124 123 121 118 116 118 121 121 120 117 116 113 107 105 97 82 57 72 92 95 101 106 108 109
146 148 154 158 156 155 153 151 149 145 140 136 132 129 127 125 124 124 124 125 125 123 121 119 121 121 120 118 113 109 102 100 99 92 65 46 56 90 91 96 101 105 108
145 145 160 161 160 159 159 159 157 152 149 143 138 135 133 130 128 127 126 125 124 122 120 118 117 117 117 116 110 103 97 94 96 87 71 52 43 88 90 90 93 101 105
145 147 165 163 165 166 167 167 164 161 155 148 145 144 140 136 133 131 129 126 124 123 121 116 114 112 113 111 103 96 95 98 95 88 78 56 39 89 91 88 89 92 96
150 154 169 169 171 174 176 175 172 169 162 158 157 156 151 147 141 136 133 130 128 123 117 111 110 109 107 104 97 94 98 105 106 101 87 57 35 93 94 90 90 89 91
158 160 172 177 178 181 183 181 179 176 172 170 170 170 167 164 156 150 144 137 131 122 112 103 97 98 97 94 93 100 99 99 110 108 101 60 55 97 99 95 94 95 99
162 165 177 180 183 187 188 187 186 184 182 182 182 183 182 179 174 166 160 155 146 132 119 104 89 85 82 82 85 89 91 98 110 121 116 64 291 119 112 102 97 96 94
169 180 184 184 182 186 192 195 194 192 191 191 192 193 193 191 189 187 181 181 178 168 148 115 79 69 67 65 71 81 86 93 111 119 81 265 240 137 125 121 109 99 93
192 203 199 198 194 190 195 205 200 199 198 197 199 202 198 191 194 200 203 208 213 208 199 179 60 40 47 42 47 71 80 79 130 139 251 268 206 145 134 131 124 117 108
206 207 204 206 204 197 205 206 201 200 196 194 191 199 182 174 196 209 226 228 230 232 239 243 277 22 53 40 25 47 60 79 122 228 258 255 209 162 138 132 128 124 118
218 215 209 208 206 202 210 205 200 198 191 192 192 192 180 179 200 215 214 258 270 269 307 346 10 46 66 47 353 346 239 193 223 261 283 264 218 176 141 130 125 127 127
251 231 225 213 209 210 211 214 203 200 199 199 197 191 181 187 202 210 212 222 231 232 226 246 268 275 266 249 240 229 236 226 220 232 276 266 214 191 164 144 134 129 130
296 267 247 223 214 212 211 219 213 210 210 206 198 197 192 196 206 211 218 216 215 206 209 228 245 258 257 246 232 223 227 222 213 207 271 266 229 224 209 180 164 153 138
346 323 290 250 229 216 215 218 218 212 213 206 207 205 201 203 206 209 218 217 216 205 203 212 234 255 263 245 241 225 218 209 206 203 211 273 256 242 244 224 199 189 182
350 347 333 288 246 227 224 225 226 215 207 209 214 210 207 207 208 209 215 220 217 199 195 201 224 234 246 229 236 221 202 199 195 208 213 232 275 260 249 241 222 210 207
351 350 346 338 322 265 236 226 226 220 213 215 211 206 208 211 210 206 214 225 212 186 183 189 192 194 212 199 203 214 189 187 200 209 219 231 241 263 271 263 242 226 225
347 345 345 343 340 318 279 242 227 224 219 216 208 206 206 208 208 205 215 222 201 185 186 195 175 176 188 196 190 181 191 196 203 210 220 229 231 232 233 272 259 236 239
342 341 340 337 338 330 310 271 238 230 226 217 211 207 203 205 205 202 210 213 192 186 187 179 168 162 171 171 161 113 255 223 203 217 224 224 224 229 222 226 241 259 253
342 341 336 334 332 332 328 303 262 236 226 221 219 212 203 203 202 197 204 201 188 195 199 180 158 157 153 132 106 59 342 319 237 235 226 223 225 223 216 214 204 200 258
337 333 331 329 326 326 317 290 266 252 238 225 220 210 201 202 200 201 194 191 184 189 189 178 160 150 151 151 143 131 286 320 285 238 229 226 228 212 218 217 206 206 211
336 333 331 325 322 321 319 304 291 274 252 221 219 211 201 197 194 192 191 185 178 177 187 185 175 162 160 168 161 151 162 217 263 294 261 242 228 216 224 212 214 214 212
330 326 325 323 323 321 320 314 293 271 258 243 229 210 196 188 183 180 180 180 176 173 172 179 170 166 153 162 170 162 162 163 166 264 308 293 249 230 231 228 222 216 212
327 326 328 327 329 330 327 314 298 286 274 273 235 192 186 182 181 175 175 173 176 174 172 170 168 168 162 165 170 163 152 145 141 162 247 293 308 260 235 227 227 223 214
330 329 333 335 335 337 336 333 321 304 296 290 227 183 176 169 165 168 169 169 169 169 175 177 177 176 178 177 178 174 167 168 178 176 204 234 262 283 269 240 230 229 220